Overview Statistics Trail Chart Weather Telemetry Raw packets
 

This is the latest recevied weather packets stored in our database for station/object NK7E-1. If no packets are shown the sender has not sent any weather packets the latest 10 day(s).

<< 1 2 3 4 5 6 >>
Time Temp. Humidity Pressure Rain* Wind** Luminosity Snow
1788576002 31.67° C 37% 1014.4 hPa 0 mm - - -
1788575402 31.67° C 37% 1014.2 hPa 0 mm - - -
1788574804 32.22° C 36% 1014.2 hPa 0 mm - - -
1788574202 32.22° C 36% 1014.1 hPa 0 mm - - -
1788573604 32.22° C 36% 1014 hPa 0 mm - - -
1788573004 32.78° C 35% 1013.9 hPa 0 mm - - -
1788572402 32.78° C 35% 1013.8 hPa 0 mm - - -
1788571802 33.33° C 35% 1013.8 hPa 0 mm - - -
1788571202 33.33° C 34% 1013.8 hPa 0 mm - - -
1788570634 33.33° C 34% 1013.7 hPa 0 mm - - -
1788570005 33.89° C 32% 1013.6 hPa 0 mm - - -
1788569403 34.44° C 32% 1013.6 hPa 0 mm - - -
1788568802 34.44° C 31% 1013.5 hPa 0 mm - - -
1788568202 35° C 31% 1013.5 hPa 0 mm - - -
1788567602 34.44° C 31% 1013.5 hPa 0 mm - - -
1788567002 34.44° C 30% 1013.4 hPa 0 mm - - -
1788566404 35° C 30% 1013.3 hPa 0 mm - - -
1788565802 35.56° C 31% 1013.1 hPa 0 mm - - -
1788565203 35.56° C 31% 1013.2 hPa 0 mm - - -
1788564603 36.11° C 29% 1013.3 hPa 0 mm - - -
1788564002 35.56° C 30% 1013.4 hPa 0 mm - - -
1788563402 35° C 30% 1013.5 hPa 0 mm - - -
1788562805 36.11° C 30% 1013.5 hPa 0 mm - - -
1788562202 35.56° C 29% 1013.6 hPa 0 mm - - -
1788561603 35.56° C 28% 1013.8 hPa 0 mm - - -

* Rain latest hour (hover to see other rain measurements)
** Current wind speed in m/s (hover to see current wind gust speed)